Fairbanks, AK

7:35 AM AKDT on August 24, 2016 (GMT -0800)
Fairbanks International

Weather History for PAFA - October, 2012

Change the Weather History Date:

Sunday, October 28, 2012

  Actual Average Record
Temperature  
Mean Temperature 12 °F 14 °F  
Max Temperature 20 °F 21 °F 51 °F (2013)
Min Temperature 4 °F 6 °F -17 °F (1953)
Degree Days  
Heating Degree Days 53 51  
Month to date heating degree days 1154 1106  
Since 1 July heating degree days 2128 2100  
Cooling Degree Days 0 0  
Month to date cooling degree days 0 0  
Year to date cooling degree days 34 61  
Moisture  
Dew Point 10 °F    
Average Humidity 85    
Maximum Humidity 93    
Minimum Humidity 71    
Precipitation  
Precipitation T in 0.02 in 0.91 in (1935)
Month to date precipitation 1.18 0.76  
Year to date precipitation 8.94 9.43  
Snow  
Snow T in 0.40 in 4.60 in (1961)
Month to date snowfall 4.2 9.5  
Since 1 July snowfall 4.2 11.3  
Since 1 September snowfall 4.2 11.3  
Snow Depth 2.00 in    
Sea Level Pressure  
Sea Level Pressure 30.17 in    
Wind  
Wind Speed 1 mph (NNE)    
Max Wind Speed 7 mph    
Max Gust Speed -    
Visibility 8 miles    
Events Fog    
T = Trace of Precipitation, MM = Missing Value Source: NWS Daily Summary

Daily Weather History Graph

Daily Weather History Graph

Search for Another Location

Airport or City:

Trip Planner

Search our weather history database for the weather conditions in past years. The results will help you decide how hot, cold, wet, or windy it might be!

Date:

Astronomy

Oct. 28, 2012 Rise Set
Actual Time 9:27 AM AKDT 5:41 PM AKDT
Civil Twilight 8:34 AM AKDT 6:35 PM AKDT
Nautical Twilight 7:36 AM AKDT 7:32 PM AKDT
Astronomical Twilight 6:39 AM AKDT 8:29 PM AKDT
Moon 5:03 PM AKDT (10/28) 8:25 AM AKDT (10/28)
Length of Visible Light 10h 00m
Length of Day
8h 13m
Waxing Gibbous, 99% of the Moon is Illuminated
Oct 28
Waxing Gibbous
Oct 29
Full
Nov 6
Last Quarter
Nov 13
New
Nov 20
First Quarter

Hourly Weather History & Observations

Time (AKDT) Temp. Windchill Dew Point Humidity Pressure Visibility Wind Dir Wind Speed Gust Speed Precip Events Conditions
12:53 AM 14.0 °F - 12.0 °F 92% 30.16 in 10.0 mi Calm Calm - N/A   Mostly Cloudy
1:53 AM 17.1 °F - 14.0 °F 88% 30.17 in 10.0 mi Calm Calm - N/A   Mostly Cloudy
2:53 AM 16.0 °F - 14.0 °F 92% 30.17 in 10.0 mi Calm Calm - N/A   Overcast
3:53 AM 12.0 °F - 9.0 °F 88% 30.17 in 10.0 mi Calm Calm - N/A   Scattered Clouds
4:53 AM 10.0 °F - 6.1 °F 84% 30.18 in 9.0 mi Calm Calm - N/A   Clear
5:41 AM 8.6 °F - 3.2 °F 79% 30.15 in 1.5 mi Calm Calm - N/A   Clear
5:46 AM 8.6 °F - 3.2 °F 79% 30.15 in 10.0 mi Calm Calm - N/A   Clear
5:53 AM 8.1 °F - 5.0 °F 87% 30.19 in 10.0 mi Calm Calm - N/A   Clear
6:53 AM 7.0 °F - 3.0 °F 84% 30.19 in 10.0 mi Calm Calm - N/A   Clear
7:43 AM 6.8 °F -0.1 °F 3.2 °F 85% 30.16 in 10.0 mi NE 3.5 mph - N/A   Scattered Clouds
7:53 AM 6.1 °F -0.9 °F 3.0 °F 87% 30.20 in 10.0 mi ENE 3.5 mph - N/A   Scattered Clouds
7:58 AM 6.8 °F - 3.2 °F 85% 30.16 in 10.0 mi Calm Calm - N/A   Mostly Cloudy
8:18 AM 8.6 °F - 5.0 °F 85% 30.17 in 10.0 mi Calm Calm - N/A   Mostly Cloudy
8:41 AM 8.6 °F - 3.2 °F 79% 30.17 in 6.0 mi Calm Calm - N/A   Mostly Cloudy
8:53 AM 7.0 °F - 3.0 °F 84% 30.21 in 6.0 mi Calm Calm - N/A   Mostly Cloudy
9:47 AM 5.0 °F - 1.4 °F 85% 30.17 in 8.0 mi Calm Calm - N/A Fog Patches of Fog
9:53 AM 6.1 °F - 1.0 °F 80% 30.21 in 6.0 mi Calm Calm - N/A   Mostly Cloudy
10:53 AM 8.1 °F - 3.9 °F 83% 30.22 in 8.0 mi Calm Calm - N/A   Mostly Cloudy
11:01 AM 8.6 °F - 6.8 °F 92% 30.18 in 8.0 mi Calm Calm - N/A   Mostly Cloudy
11:53 AM 14.0 °F - 10.9 °F 88% 30.22 in 8.0 mi Calm Calm - N/A   Mostly Cloudy
12:53 PM 18.0 °F - 15.1 °F 88% 30.22 in 8.0 mi Calm Calm - N/A   Overcast
1:53 PM 19.0 °F - 16.0 °F 88% 30.21 in 8.0 mi Calm Calm - N/A   Overcast
2:41 PM 19.4 °F - 15.8 °F 86% 30.17 in 6.0 mi Calm Calm - N/A   Overcast
2:53 PM 19.0 °F - 16.0 °F 88% 30.20 in 6.0 mi Calm Calm - N/A   Overcast
3:53 PM 19.9 °F - 16.0 °F 85% 30.20 in 6.0 mi Calm Calm - 0.00 in   Overcast
4:53 PM 19.9 °F - 17.1 °F 89% 30.19 in 6.0 mi Calm Calm - N/A   Overcast
5:53 PM 19.9 °F 14.9 °F 16.0 °F 85% 30.18 in 6.0 mi NE 3.5 mph - N/A   Overcast
6:53 PM 19.0 °F 12.3 °F 16.0 °F 88% 30.17 in 6.0 mi NNE 4.6 mph - N/A   Overcast
7:53 PM 19.0 °F 11.1 °F 16.0 °F 88% 30.16 in 6.0 mi North 5.8 mph - N/A   Overcast
8:53 PM 18.0 °F 8.7 °F 15.1 °F 88% 30.15 in 6.0 mi North 6.9 mph - N/A   Overcast
9:14 PM 17.6 °F 12.3 °F 15.8 °F 93% 30.10 in 6.0 mi North 3.5 mph - N/A   Mostly Cloudy
9:53 PM 17.1 °F - 14.0 °F 88% 30.13 in 6.0 mi Calm Calm - N/A   Mostly Cloudy
10:53 PM 16.0 °F - 12.9 °F 88% 30.12 in 6.0 mi Calm Calm - N/A   Mostly Cloudy
11:53 PM 12.0 °F - 9.0 °F 88% 30.11 in 10.0 mi Calm Calm - N/A   Mostly Cloudy